Back to catalog

DELTA 1 DEB

AliveSSO
NORAD 21475·DEBRIS·🇺🇸 United States

Launched Jun 12, 1975 from Vandenberg Space Force Base

Loading…

Next Passes (next 24 hours)

TLE

FreshSource: Space-Track

Epoch: Sep 13, 2026, 22:59 UTC

1 21475U 75052FK  26256.95810208  .00000006  00000-0  70613-4 0  9999
2 21475  99.6179  62.8323 0091448   7.9113 145.6106 13.54161838743516

Track DELTA 1 DEB in real time with AllMySat

Download on the App Store